Flag for Germany Weather past 2 weeks in Elmshorn, Schleswig-Holstein, Germany

Now
37 °F

Passing clouds.


Feels Like: 30 °F
Forecast: 35 / 41 °F
Wind: 12 mph from West

Location: Hamburg-Fuhlsbuettel

Current Time: Jan 27, 2015 at 5:02:01 AM

Latest Report: Jan 27, 2015 at 4:20 AM


Visibility: N/A

Pressure: 29.92 "Hg

Humidity: 93%

Dew point: 36 °F

Location of ElmshornLocation

Historic Weather in Elmshorn — Graph

°F

Elmshorn temperature yesterday

Maximum temperature yesterday: 43 °F (at 7:20 PM)
Minimum temperature yesterday: 36 °F (at 12:20 AM)
Average temperature yesterday: 39 °F

Past Weeks' High & Low Weather Summary

 TemperatureHumidityPressure
High50 °F (Jan 15, 8:20 PM)100% (Jan 12, 10:50 PM)30.30 "Hg (Jan 12, 10:50 PM)
Low25 °F (Jan 21, 5:50 AM)70% (Jan 17, 12:50 PM)29.33 "Hg (Jan 15, 6:50 PM)
Average36 °F91%29.89 "Hg
* Reported Jan 12 3:20 AM — Jan 27 3:20 AM, Elmshorn, Weather by CustomWeather, © 2014

Note: Actual official high and low records may vary slightly from our data, if they occured in-between our weather recording intervals... More about our weather records

Advertising

Elmshorn weather history for previous 24 hours

 ConditionsComfort  
Time TempWeatherWind HumidityBarometerVisibility
3:20 AM
Jan 27
37 °FPassing clouds.13 mph93%29.92 "HgN/A
2:50 AM39 °FSprinkles. Passing clouds.13 mph87%29.92 "HgN/A
2:20 AM39 °FPassing clouds.13 mph93%29.92 "HgN/A
1:50 AM39 °FSprinkles. Passing clouds.14 mph93%29.89 "HgN/A
1:20 AM39 °FPartly cloudy.12 mph93%29.89 "HgN/A
12:50 AM39 °FPartly cloudy.13 mph93%29.89 "HgN/A
12:20 AM39 °FPartly cloudy.12 mph93%29.89 "HgN/A
11:50 PM
Jan 26
39 °FPartly cloudy.12 mph93%29.89 "HgN/A
11:20 PM39 °FPartly cloudy.13 mph93%29.89 "HgN/A
10:50 PM39 °FPassing clouds.8 mph93%29.89 "HgN/A
10:20 PM39 °FLight rain. Passing clouds.10 mph93%29.89 "Hg4 mi
9:50 PM39 °FLight rain. Partly cloudy.10 mph93%29.89 "HgN/A
9:20 PM39 °FLight rain. Partly cloudy.15 mph93%29.86 "Hg6 mi
8:50 PM41 °FLight rain. Passing clouds.15 mph93%29.86 "HgN/A
8:20 PM41 °FPassing clouds.13 mph93%29.86 "HgN/A
7:50 PM41 °FPartly cloudy.15 mph93%29.86 "HgN/A
7:20 PM43 °FPartly cloudy.12 mph93%29.83 "HgN/A
6:50 PM41 °FLight rain. Partly cloudy.12 mph100%29.86 "Hg4 mi
6:20 PM41 °FLight rain. Passing clouds.12 mph100%29.83 "Hg4 mi
5:50 PM39 °FLight rain. Passing clouds.10 mph100%29.86 "Hg4 mi
5:20 PM39 °FDrizzle. Fog.12 mph100%29.86 "Hg3 mi
4:50 PM39 °FLight rain. Fog.13 mph100%29.86 "Hg3 mi
4:20 PM39 °FLight rain. Partly sunny.14 mph100%29.86 "Hg4 mi
3:50 PM39 °FDrizzle. Fog.14 mph100%29.86 "Hg2 mi
3:20 PM39 °FDrizzle. Partly sunny.14 mph100%29.89 "Hg4 mi
2:50 PM39 °FDrizzle. Fog.15 mph93%29.89 "Hg3 mi
2:20 PM39 °FDrizzle. Fog.16 mph93%29.92 "Hg2 mi
1:50 PM39 °FDrizzle. Fog.15 mph93%29.92 "Hg2 mi
1:20 PM39 °FDrizzle. Fog.17 mph93%29.95 "Hg3 mi
12:50 PM39 °FLight rain. Partly sunny.16 mph93%29.95 "Hg4 mi
12:20 PM39 °FLight rain. Partly sunny.16 mph93%29.98 "Hg4 mi
11:50 AM39 °FDrizzle. Fog.12 mph93%30.01 "Hg3 mi
11:20 AM39 °FDrizzle. Fog.12 mph93%30.01 "Hg3 mi
10:50 AM37 °FDrizzle. Fog.12 mph100%30.04 "Hg2 mi
10:20 AM37 °FDrizzle. Partly sunny.12 mph100%30.04 "Hg4 mi
9:50 AM37 °FDrizzle. Fog.12 mph100%30.07 "Hg3 mi
9:20 AM37 °FDrizzle. Fog.12 mph100%30.07 "Hg2 mi
8:50 AM37 °FDrizzle. Fog.10 mph100%30.09 "Hg2 mi
8:20 AM37 °FDrizzle. Fog.12 mph100%30.09 "Hg2 mi
7:50 AM37 °FDrizzle. Fog.10 mph93%30.09 "Hg2 mi
7:20 AM37 °FFog.10 mph93%30.12 "Hg3 mi
6:50 AM37 °FFog.9 mph93%30.12 "Hg3 mi
6:20 AM37 °FFog.9 mph93%30.12 "Hg3 mi
5:50 AM36 °FFog.9 mph100%30.12 "Hg3 mi
5:20 AM37 °FFog.12 mph100%30.15 "Hg2 mi
Weather by CustomWeather, © 2014

See weather overviewHow to use our weather pages